GW2273 Weather Reports


time (UTC)temp
C
wind
direction
speed
KPH
gust
KPH
rain 1hr
cm
rain 24hr
cm
rain mn
cm
humidity
%
barometer
mb
20260505230503 15 11 11.3 24.1 0.00 0.00 0.00 61 1009.7
20260505230003 15 19 11.3 24.1 0.00 0.00 0.00 61 1009.7
20260505225524 15 31 11.3 25.7 0.00 0.00 0.00 61 1009.7
20260505225003 15 36 11.3 25.7 0.00 0.00 0.00 61 1009.8
20260505224524 15 34 12.9 25.7 0.00 0.00 0.00 61 1009.7
20260505224003 15 20 12.9 22.5 0.00 0.00 0.00 61 1009.6
20260505223503 15 18 11.3 22.5 0.00 0.00 0.00 61 1009.7
20260505223003 16 10 11.3 20.9 0.00 0.00 0.00 60 1010.2
20260505222524 16 3 12.9 24.1 0.00 0.00 0.00 60 1010.0
20260505222003 16 12 11.3 24.1 0.00 0.00 0.00 60 1009.9
20260505221503 16 7 9.7 20.9 0.00 0.00 0.00 59 1009.8
20260505221003 16 359 8.0 17.7 0.00 0.00 0.00 59 1010.1
20260505220524 16 359 8.0 17.7 0.00 0.00 0.00 58 1010.1
20260505220003 16 1 9.7 20.9 0.00 0.00 0.00 59 1010.2
20260505215503 17 2 9.7 22.5 0.00 0.00 0.00 58 1010.0
20260505215003 17 6 9.7 22.5 0.00 0.00 0.00 56 1010.3
20260505214503 17 356 12.9 20.9 0.00 0.00 0.00 56 1010.2
20260505214003 17 3 12.9 20.9 0.00 0.00 0.00 56 1010.1
20260505213524 17 14 11.3 20.9 0.00 0.00 0.00 55 1010.0
20260505213003 17 355 9.7 20.9 0.00 0.00 0.00 55 1010.0
20260505212503 18 352 8.0 20.9 0.00 0.00 0.00 55 1010.0
20260505212003 18 348 8.0 17.7 0.00 0.00 0.00 55 1010.0
20260505211503 17 338 11.3 20.9 0.00 0.00 0.00 55 1010.1
20260505211024 18 340 11.3 20.9 0.00 0.00 0.00 54 1010.0
20260505210503 18 347 9.7 24.1 0.00 0.00 0.00 54 1009.9
20260505210003 18 352 11.3 25.7 0.00 0.00 0.00 54 1009.7
20260505205503 18 348 12.9 25.7 0.00 0.00 0.00 53 1009.6
20260505205003 18 341 14.5 24.1 0.00 0.00 0.00 54 1010.0
20260505204524 18 342 14.5 25.7 0.00 0.00 0.00 53 1010.0
20260505204003 18 352 12.9 25.7 0.00 0.00 0.00 53 1010.1
20260505203503 18 348 11.3 24.1 0.00 0.00 0.00 53 1010.0
20260505203003 18 345 12.9 24.1 0.00 0.00 0.00 53 1009.9
20260505202503 19 7 12.9 38.6 0.00 0.00 0.00 52 1009.8
20260505202003 19 9 14.5 38.6 0.00 0.00 0.00 52 1009.7
20260505201503 19 360 12.9 29.0 0.00 0.00 0.00 50 1009.5
20260505201003 19 9 12.9 29.0 0.00 0.00 0.00 51 1009.3
20260505200524 19 360 11.3 27.4 0.00 0.00 0.00 49 1009.2
20260505200003 19 346 11.3 27.4 0.00 0.00 0.00 49 1009.2
20260505195524 20 348 11.3 25.7 0.00 0.00 0.00 48 1009.5
20260505195003 20 343 12.9 24.1 0.00 0.00 0.00 48 1009.4
20260505194503 20 343 11.3 24.1 0.00 0.00 0.00 47 1009.4
20260505194003 19 345 9.7 22.5 0.00 0.00 0.00 48 1009.5
20260505193503 19 347 9.7 20.9 0.00 0.00 0.00 47 1009.6
20260505193003 19 345 11.3 24.1 0.00 0.00 0.00 49 1009.4
20260505192503 19 341 14.5 27.4 0.00 0.00 0.00 48 1009.4
20260505192003 18 346 16.1 27.4 0.00 0.00 0.00 48 1009.1
20260505191503 18 350 14.5 27.4 0.00 0.00 0.00 49 1008.9
20260505191024 18 345 14.5 27.4 0.00 0.00 0.00 50 1009.0
20260505190503 18 347 16.1 27.4 0.00 0.00 0.00 49 1009.1
20260505190003 18 348 14.5 27.4 0.00 0.00 0.00 50 1009.0
20260505185503 18 349 14.5 25.7 0.00 0.00 0.00 49 1009.0
20260505185003 18 345 12.9 25.7 0.00 0.00 0.00 49 1009.5
20260505184503 19 335 11.3 24.1 0.00 0.00 0.00 49 1009.4
20260505184024 19 342 11.3 24.1 0.00 0.00 0.00 50 1009.4
20260505183503 18 349 12.9 27.4 0.00 0.00 0.00 50 1009.8
20260505183003 19 344 12.9 27.4 0.00 0.00 0.00 49 1009.9
20260505182503 18 351 12.9 24.1 0.00 0.00 0.00 49 1010.0
20260505182003 19 2 9.7 20.9 0.00 0.00 0.00 49 1010.0
20260505181503 19 351 9.7 24.1 0.00 0.00 0.00 49 1010.2
20260505181003 18 346 11.3 24.1 0.00 0.00 0.00 50 1010.3
20260505180503 19 344 12.9 25.7 0.00 0.00 0.00 50 1010.2
20260505180003 19 350 12.9 25.7 0.00 0.00 0.00 50 1009.8
20260505175524 19 355 11.3 22.5 0.00 0.00 0.00 50 1009.9
20260505175003 20 346 12.9 29.0 0.00 0.00 0.00 49 1009.7
20260505174503 20 350 11.3 29.0 0.00 0.00 0.00 49 1010.2
20260505174024 19 3 9.7 22.5 0.00 0.00 0.00 51 1009.6
20260505173524 18 3 9.7 22.5 0.00 0.00 0.00 52 1009.5
20260505173003 18 353 11.3 25.7 0.00 0.00 0.00 52 1009.2
20260505172524 18 354 11.3 25.7 0.00 0.00 0.00 54 1008.9
20260505172003 18 2 12.9 30.6 0.00 0.00 0.00 54 1008.6
20260505171503 18 350 14.5 30.6 0.00 0.00 0.00 55 1008.7
20260505171003 18 345 14.5 30.6 0.00 0.00 0.00 54 1008.9
20260505170524 18 351 12.9 30.6 0.00 0.00 0.00 54 1008.7
20260505170003 18 342 12.9 27.4 0.00 0.00 0.00 55 1009.1
20260505165503 18 339 16.1 27.4 0.00 0.00 0.00 55 1009.0
20260505165003 18 344 17.7 35.4 0.00 0.00 0.00 56 1009.0
20260505164503 18 343 16.1 35.4 0.00 0.00 0.00 56 1008.8
20260505164003 19 346 12.9 27.4 0.00 0.00 0.00 55 1008.6
20260505163524 19 347 12.9 25.7 0.00 0.00 0.00 56 1008.6
20260505163024 18 340 12.9 25.7 0.00 0.00 0.00 58 1008.6
20260505162503 18 343 12.9 29.0 0.00 0.00 0.00 58 1008.4
20260505162003 18 349 14.5 29.0 0.00 0.00 0.00 59 1008.1
20260505161503 18 351 12.9 25.7 0.00 0.00 0.00 59 1007.9
20260505161003 18 348 12.9 27.4 0.00 0.00 0.00 61 1007.8
20260505160503 18 345 12.9 27.4 0.00 0.00 0.00 61 1007.7
20260505153024 20 338 16.1 25.7 0.00 0.00 0.00 62 1007.0
20260505152503 20 335 16.1 25.7 0.00 0.00 0.00 63 1006.8
20260505152024 20 334 16.1 25.7 0.00 0.00 0.00 64 1006.7
20260505151503 20 332 17.7 30.6 0.00 0.00 0.00 64 1006.6
20260505151003 20 333 17.7 30.6 0.00 0.00 0.00 63 1006.2
20260505150503 20 336 16.1 27.4 0.00 0.00 0.00 64 1006.1
20260505140503 20 342 14.5 27.4 0.00 0.00 0.00 65 1005.7
20260505125003 21 299 8.0 17.7 0.00 0.00 0.00 30 1003.4
20260505124524 21 289 6.4 14.5 0.00 0.00 0.00 30 1003.5
20260505124003 21 285 4.8 14.5 0.00 0.00 0.00 31 1003.3
20260505123503 21 284 4.8 14.5 0.00 0.00 0.00 31 1003.4
20260505123003 21 286 4.8 12.9 0.00 0.00 0.00 30 1003.0
20260505122503 21 288 4.8 12.9 0.00 0.00 0.00 31 1003.0
20260505122003 21 276 4.8 12.9 0.00 0.00 0.00 30 1002.8
20260505121503 21 244 3.2 12.9 0.00 0.00 0.00 30 1002.7
20260505121003 21 229 3.2 12.9 0.00 0.00 0.00 30 1002.7
20260505120503 21 228 3.2 11.3 0.00 0.00 0.00 30 1002.6
20260505120003 21 224 1.6 11.3 0.00 0.00 0.00 30 1002.5
20260505115503 21 222 1.6 9.7 0.00 0.00 0.00 30 1002.6
20260505115003 21 235 1.6 9.7 0.00 0.00 0.00 30 1002.5
20260505114503 21 238 1.6 11.3 0.00 0.00 0.00 30 1002.4
20260505114003 21 223 1.6 11.3 0.00 0.00 0.00 29 1002.4
20260505113503 22 223 3.2 9.7 0.00 0.00 0.00 29 1002.3
20260505113024 22 237 3.2 16.1 0.00 0.00 0.00 29 1002.2
20260505112503 22 231 4.8 16.1 0.00 0.00 0.00 29 1002.2
20260505112003 22 215 6.4 14.5 0.00 0.00 0.00 29 1001.9
20260505111503 22 210 6.4 14.5 0.00 0.00 0.00 29 1001.9
20260505111003 22 208 4.8 14.5 0.00 0.00 0.00 29 1001.8
20260505110524 22 222 4.8 12.9 0.00 0.00 0.00 29 1001.8
20260505102003 22 207 4.8 14.5 0.00 0.00 0.00 27 1001.5
20260505101503 22 202 6.4 14.5 0.00 0.00 0.00 26 1001.4
20260505101024 22 204 6.4 14.5 0.00 0.00 0.00 26 1001.4
20260505100503 22 206 6.4 14.5 0.00 0.00 0.00 26 1001.5
20260505100003 22 204 6.4 14.5 0.00 0.00 0.00 27 1001.4
20260505095503 22 204 6.4 14.5 0.00 0.00 0.00 27 1001.4
20260505095003 22 201 6.4 14.5 0.00 0.00 0.00 27 1001.4
20260505094503 22 201 6.4 14.5 0.00 0.00 0.00 27 1001.3
20260505094003 22 199 8.0 14.5 0.00 0.00 0.00 27 1001.3
20260505093524 22 199 6.4 14.5 0.00 0.00 0.00 27 1001.3
20260505093003 22 197 6.4 14.5 0.00 0.00 0.00 27 1001.2
20260505092503 22 196 6.4 14.5 0.00 0.00 0.00 27 1001.0
20260505092003 22 197 8.0 17.7 0.00 0.00 0.00 27 1001.1
20260505091503 22 198 8.0 17.7 0.00 0.00 0.00 27 1001.1
20260505091003 22 199 6.4 16.1 0.00 0.00 0.00 27 1001.2
20260505090503 22 199 6.4 16.1 0.00 0.00 0.00 27 1001.3
20260505090003 22 199 6.4 19.3 0.00 0.00 0.00 27 1001.2
20260505085503 22 204 6.4 19.3 0.00 0.00 0.00 27 1001.3
20260505085003 22 201 8.0 19.3 0.00 0.00 0.00 28 1001.3
20260505084503 22 193 8.0 17.7 0.00 0.00 0.00 28 1001.4
20260505084003 22 192 6.4 16.1 0.00 0.00 0.00 28 1001.4
20260505083503 22 194 6.4 11.3 0.00 0.00 0.00 28 1001.3
20260505083003 23 196 4.8 12.9 0.00 0.00 0.00 28 1001.5
20260505082524 23 198 4.8 12.9 0.00 0.00 0.00 28 1001.4
20260505082003 23 198 3.2 9.7 0.00 0.00 0.00 28 1001.5
20260505081503 23 191 3.2 9.7 0.00 0.00 0.00 28 1001.6
20260505081003 23 194 4.8 14.5 0.00 0.00 0.00 28 1001.5
20260505080503 23 197 4.8 14.5 0.00 0.00 0.00 29 1001.7
20260505080003 23 195 6.4 12.9 0.00 0.00 0.00 29 1001.7
20260505075503 23 194 6.4 12.9 0.00 0.00 0.00 29 1001.7
20260505075003 23 193 4.8 11.3 0.00 0.00 0.00 29 1001.7
20260505074503 23 197 4.8 11.3 0.00 0.00 0.00 28 1001.8
20260505074003 23 198 4.8 11.3 0.00 0.00 0.00 28 1001.9
20260505073524 23 198 6.4 11.3 0.00 0.00 0.00 27 1001.9
20260505073003 24 203 3.2 11.3 0.00 0.00 0.00 27 1002.0
20260505072503 24 209 3.2 8.0 0.00 0.00 0.00 26 1001.8
20260505072003 24 209 3.2 9.7 0.00 0.00 0.00 26 1001.9
20260505071503 25 202 6.4 14.5 0.00 0.00 0.00 26 1002.0
20260505071003 25 196 6.4 14.5 0.00 0.00 0.00 25 1002.1
20260505070503 25 198 4.8 11.3 0.00 0.00 0.00 25 1002.1
20260505070003 25 198 4.8 14.5 0.00 0.00 0.00 24 1002.0
20260505065524 25 198 4.8 14.5 0.00 0.00 0.00 24 1002.3
20260505065003 26 225 3.2 11.3 0.00 0.00 0.00 23 1002.2
20260505064503 26 256 3.2 11.3 0.00 0.00 0.00 23 1002.1
20260505064003 26 261 3.2 9.7 0.00 0.00 0.00 23 1002.2
20260505063503 26 265 3.2 14.5 0.00 0.00 0.00 23 1002.3
20260505063003 26 262 3.2 14.5 0.00 0.00 0.00 24 1002.3
20260505062503 26 250 3.2 14.5 0.00 0.00 0.00 24 1002.4
20260505062003 26 249 3.2 9.7 0.00 0.00 0.00 24 1002.4
20260505061503 26 243 3.2 11.3 0.00 0.00 0.00 24 1002.5
20260505061003 26 235 1.6 11.3 0.00 0.00 0.00 25 1002.6
20260505060503 25 209 1.6 11.3 0.00 0.00 0.00 25 1002.7
20260505060003 25 191 3.2 11.3 0.00 0.00 0.00 25 1002.7
20260505055503 25 199 3.2 9.7 0.00 0.00 0.00 26 1002.6
20260505055003 25 206 3.2 11.3 0.00 0.00 0.00 26 1002.6
20260505054524 25 205 3.2 11.3 0.00 0.00 0.00 26 1002.8
20260505054003 25 202 3.2 11.3 0.00 0.00 0.00 26 1002.7
20260505053524 25 203 3.2 11.3 0.00 0.00 0.00 26 1002.8
20260505053003 26 201 3.2 9.7 0.00 0.00 0.00 26 1002.7
20260505052503 26 196 4.8 11.3 0.00 0.00 0.00 26 1002.8
20260505052003 26 200 4.8 12.9 0.00 0.00 0.00 25 1002.8
20260505051503 26 203 4.8 12.9 0.00 0.00 0.00 25 1002.7
20260505051003 26 201 4.8 12.9 0.00 0.00 0.00 25 1002.8
20260505050503 26 206 4.8 14.5 0.00 0.00 0.00 25 1002.8
20260505041503 27 216 4.8 12.9 0.00 0.00 0.00 23 1002.9
20260505041003 27 207 6.4 16.1 0.00 0.00 0.00 23 1002.8
20260505040503 27 205 6.4 16.1 0.00 0.00 0.00 23 1002.9
20260505040024 27 203 6.4 16.1 0.00 0.00 0.00 22 1002.9
20260505035503 27 200 6.4 16.1 0.00 0.00 0.00 22 1002.8
20260505035003 27 199 6.4 16.1 0.00 0.00 0.00 22 1002.7
20260505034503 28 201 8.0 16.1 0.00 0.00 0.00 21 1002.7
20260505034003 28 204 8.0 16.1 0.00 0.00 0.00 21 1002.7
20260505033503 28 203 6.4 16.1 0.00 0.00 0.00 21 1002.6
20260505033003 28 206 6.4 17.7 0.00 0.00 0.00 21 1002.6
20260505032503 28 209 8.0 17.7 0.00 0.00 0.00 20 1002.7
20260505032003 28 212 6.4 16.1 0.00 0.00 0.00 20 1002.7
20260505031524 28 206 4.8 12.9 0.00 0.00 0.00 20 1002.5
20260505031003 28 208 4.8 12.9 0.00 0.00 0.00 20 1002.6
20260505030503 28 214 4.8 14.5 0.00 0.00 0.00 20 1002.5
20260505030003 28 210 4.8 16.1 0.00 0.00 0.00 19 1002.5
20260505025503 29 223 4.8 16.1 0.00 0.00 0.00 19 1002.3
20260505025024 29 230 4.8 14.5 0.00 0.00 0.00 20 1002.4
20260505024524 29 217 6.4 17.7 0.00 0.00 0.00 20 1002.5
20260505024024 29 209 6.4 17.7 0.00 0.00 0.00 20 1002.5
20260505023503 28 207 8.0 16.1 0.00 0.00 0.00 21 1002.4
20260505023024 28 200 8.0 24.1 0.00 0.00 0.00 22 1002.3
20260505022503 28 191 9.7 24.1 0.00 0.00 0.00 26 1002.4
20260505022024 28 189 8.0 17.7 0.00 0.00 0.00 31 1002.3
20260505021503 29 195 9.7 16.1 0.00 0.00 0.00 30 1002.3
20260505021003 29 194 11.3 29.0 0.00 0.00 0.00 32 1002.4
20260505020503 29 191 14.5 32.2 0.00 0.00 0.00 33 1002.3
20260505020003 29 187 16.1 32.2 0.00 0.00 0.00 34 1002.3
20260505015503 29 178 17.7 32.2 0.00 0.00 0.00 36 1002.3
20260505015003 29 178 17.7 32.2 0.00 0.00 0.00 37 1002.0
20260505014524 29 179 17.7 27.4 0.00 0.00 0.00 37 1002.1
20260505014024 30 177 16.1 30.6 0.00 0.00 0.00 36 1002.0
20260505013503 30 177 16.1 30.6 0.00 0.00 0.00 33 1002.1
20260505013003 30 181 14.5 25.7 0.00 0.00 0.00 31 1002.0
20260505012524 30 182 14.5 22.5 0.00 0.00 0.00 29 1002.0
20260505012003 30 178 12.9 22.5 0.00 0.00 0.00 29 1001.8
20260505011503 30 178 12.9 24.1 0.00 0.00 0.00 29 1001.7
20260505011024 30 181 12.9 24.1 0.00 0.00 0.00 29 1001.7
20260505010503 31 186 11.3 20.9 0.00 0.00 0.00 29 1001.5
20260505010003 31 185 12.9 25.7 0.00 0.00 0.00 28 1001.5
20260505005503 31 183 12.9 25.7 0.00 0.00 0.00 28 1001.6
20260505005004 31 183 12.9 24.1 0.00 0.00 0.00 28 1001.5
20260505004503 31 185 12.9 24.1 0.00 0.00 0.00 28 1001.5
20260505004003 31 187 14.5 27.4 0.00 0.00 0.00 28 1001.7
20260505003524 31 187 14.5 32.2 0.00 0.00 0.00 27 1001.7
20260505003003 31 185 16.1 32.2 0.00 0.00 0.00 27 1001.7
20260505002503 31 187 14.5 25.7 0.00 0.00 0.00 27 1001.8
20260505002003 31 189 14.5 25.7 0.00 0.00 0.00 27 1002.0
20260505001524 31 190 14.5 25.7 0.00 0.00 0.00 27 1002.1
20260505001003 31 194 14.5 32.2 0.00 0.00 0.00 27 1002.1
20260505000503 32 199 14.5 32.2 0.00 0.00 0.00 27 1002.0
20260505000003 32 205 12.9 30.6 0.00 0.00 0.00 26 1002.0
20260504235503 32 204 14.5 33.8 0.00 0.00 0.00 26 1002.0
20260504235003 32 204 14.5 33.8 0.00 0.00 0.00 26 1002.0
20260504234503 32 207 12.9 30.6 0.00 0.00 0.00 26 1002.1
20260504234003 32 212 11.3 27.4 0.00 0.00 0.00 26 1002.1
20260504233524 32 220 12.9 30.6 0.00 0.00 0.00 25 1002.1
20260504233003 32 217 16.1 30.6 0.00 0.00 0.00 25 1002.2
20260504232503 32 215 12.9 29.0 0.00 0.00 0.00 25 1002.3
20260504232003 32 208 11.3 24.1 0.00 0.00 0.00 25 1002.4
20260504231503 32 203 11.3 33.8 0.00 0.00 0.00 26 1002.4
20260504231003 32 204 12.9 33.8 0.00 0.00 0.00 26 1002.4